Location: Acorn Hill
(36.4429°N, 76.5469°W)
Time: 13:48:02
(UTC+00:00)

X-37B - Visible Passes

Search period start: 24 July 2021 00:00
Search period end: 03 August 2021 00:00
Orbit: 383 x 392 km, 45.0° (Epoch: 01 July)

Date Brightness Start Highest point End Pass type
(mag) Time Alt. Az. Time Alt. Az. Time Alt. Az.
28 Jul 3.3 08:46:52 10° SSE 08:47:53 11° SE 08:48:54 10° ESE visible
29 Jul 1.3 09:23:01 12° SW 09:25:48 45° SE 09:28:52 10° ENE visible
30 Jul 2.3 08:27:20 22° SSE 08:27:33 22° SE 08:30:08 10° E visible
31 Jul 0.5 09:03:53 24° WSW 09:05:38 86° NNW 09:08:51 10° ENE visible
01 Aug 1.8 08:08:05 36° ESE 08:08:05 36° ESE 08:10:23 10° ENE visible
01 Aug 2.1 09:41:11 10° W 09:44:02 29° NNW 09:46:55 10° NE visible
02 Aug 1.3 08:44:32 32° WNW 08:45:34 46° NNW 08:48:39 10° NE visible
